Tracking 32577 objects as of 15-Dec-2025
HD Live streaming from Space Station
objects crossing your sky now

STARLINK-5540

Track STARLINK-5540 now!
10-day predictions
STARLINK-5540 is classified as:


NORAD ID: 56340
Int'l Code: 2023-058Z
Perigee: 555.3 km
Apogee: 558.0 km
Inclination: 97.6 °
Period: 95.6 minutes
Semi major axis: 6927 km
RCS: Unknown
Launch date: April 27, 2023
Source: United States (US)
Launch site: AIR FORCE WESTERN TEST RANGE (AFWTR)
Your satellite tracking list
Your tracking list is empty




NASA's NSSDC Master Catalog

Two Line Element Set (TLE):
1 56340U 23058Z   25348.01571903  .00000993  00000-0  73039-4 0  9991
2 56340  97.6035 346.7422 0001977  88.7718 271.3735 15.05643536145300
Source of the keplerian elements: AFSPC